Weather History for KTTN - February, 2012

Change the Weather History Date:

Friday, February 10, 2012

  Actual Average Record
Temperature  
Mean Temperature 37 °F 33 °F  
Max Temperature 47 °F 41 °F 67 °F (1925)
Min Temperature 27 °F 25 °F -10 °F (1899)
Degree Days  
Heating Degree Days 28 32  
Month to date heating degree days 241 326  
Since 1 July heating degree days 2469 3272  
Cooling Degree Days 0 0  
Month to date cooling degree days 0 0  
Year to date cooling degree days 0 0  
Moisture  
Dew Point 22 °F    
Average Humidity 56    
Maximum Humidity 75    
Minimum Humidity 37    
Precipitation  
Precipitation T in 0.08 in 1.20 in (2010)
Month to date precipitation 0.08 0.73  
Year to date precipitation 3.57 3.89  
Sea Level Pressure  
Sea Level Pressure 30.06 in    
Wind  
Wind Speed 4 mph (WNW)    
Max Wind Speed 10 mph    
Max Gust Speed 14 mph    
Visibility 10 miles    
Events Snow    
T = Trace of Precipitation, MM = Missing Value Source: NWS Daily Summary

Daily Weather History Graph

Daily Weather History Graph

Search for Another Location

Airport or City:

Trip Planner

Search our weather history database for the weather conditions in past years. The results will help you decide how hot, cold, wet, or windy it might be!

Date:

Astronomy

Feb. 10, 2012 Rise Set
Actual Time 6:59 AM EST 5:28 PM EST
Civil Twilight 6:31 AM EST 5:56 PM EST
Nautical Twilight 5:59 AM EST 6:28 PM EST
Astronomical Twilight 5:27 AM EST 7:00 PM EST
Moon 9:04 PM EST (2/10) 8:06 AM EST (2/10)
Length of Visible Light 11h 25m
Length of Day
10h 28m
Waning Gibbous, 90% of the Moon is Illuminated
Feb 10
Waning Gibbous
Feb 14
Last Quarter
Feb 21
New
Feb 29
First Quarter
Mar 8
Full

Hourly Weather History & Observations

Time (EST) Temp. Windchill Dew Point Humidity Pressure Visibility Wind Dir Wind Speed Gust Speed Precip Events Conditions
12:53 AM 30.9 °F - 21.0 °F 67% 30.14 in 10.0 mi Calm Calm - N/A   Clear
1:53 AM 32.0 °F 28.7 °F 21.0 °F 64% 30.14 in 10.0 mi West 3.5 mph - N/A   Clear
2:53 AM 32.0 °F - 21.0 °F 64% 30.13 in 10.0 mi Calm Calm - N/A   Clear
3:53 AM 30.9 °F 27.5 °F 21.9 °F 69% 30.12 in 10.0 mi WSW 3.5 mph - N/A   Clear
4:53 AM 28.9 °F 22.8 °F 21.0 °F 72% 30.13 in 10.0 mi SW 5.8 mph - N/A   Clear
5:53 AM 28.9 °F - 19.9 °F 69% 30.14 in 10.0 mi Calm Calm - N/A   Clear
6:53 AM 28.0 °F - 19.0 °F 69% 30.14 in 10.0 mi Calm Calm - N/A   Clear
7:53 AM 30.0 °F - 21.9 °F 72% 30.14 in 9.0 mi Calm Calm - N/A   Clear
8:53 AM 37.9 °F 35.5 °F 21.9 °F 53% 30.14 in 10.0 mi NW 3.5 mph - N/A   Clear
9:53 AM 39.0 °F 35.7 °F 21.0 °F 49% 30.13 in 10.0 mi NNW 4.6 mph - N/A   Clear
10:53 AM 42.1 °F 40.2 °F 19.9 °F 41% 30.11 in 10.0 mi NNW 3.5 mph - N/A   Clear
11:53 AM 43.0 °F 39.5 °F 21.9 °F 43% 30.09 in 10.0 mi West 5.8 mph - N/A   Scattered Clouds
12:53 PM 44.1 °F 40.8 °F 21.9 °F 42% 30.04 in 10.0 mi West 5.8 mph - N/A   Clear
1:53 PM 46.0 °F 43.9 °F 21.9 °F 39% 30.01 in 10.0 mi Variable 4.6 mph - N/A   Clear
2:53 PM 46.0 °F 43.1 °F 21.9 °F 39% 29.99 in 10.0 mi West 5.8 mph - N/A   Clear
3:53 PM 45.0 °F 41.8 °F 21.9 °F 40% 29.99 in 10.0 mi NW 5.8 mph - N/A   Partly Cloudy
4:53 PM 44.1 °F 41.5 °F 21.9 °F 42% 29.98 in 10.0 mi NW 4.6 mph - N/A   Overcast
5:53 PM 43.0 °F 38.2 °F 21.9 °F 43% 29.99 in 10.0 mi WNW 8.1 mph - N/A   Overcast
6:53 PM 42.1 °F 39.2 °F 21.9 °F 45% 29.97 in 10.0 mi NW 4.6 mph - N/A   Overcast
7:53 PM 39.9 °F 34.5 °F 27.0 °F 60% 29.98 in 10.0 mi West 8.1 mph - N/A   Overcast
8:53 PM 39.0 °F 32.8 °F 28.0 °F 65% 29.97 in 9.0 mi West 9.2 mph - N/A   Overcast
9:53 PM 39.0 °F 34.8 °F 28.0 °F 65% 29.96 in 9.0 mi WSW 5.8 mph - N/A   Overcast
10:53 PM 37.9 °F 33.5 °F 28.9 °F 70% 29.93 in 7.0 mi NNW 5.8 mph - N/A   Overcast
11:53 PM 37.0 °F - 30.0 °F 76% 29.91 in 6.0 mi Calm Calm - 0.00 in Snow Light Snow